Miscellaneous Local Product
Issued by NWS Hastings, NE

Home | Current Version | Previous Version | Text Only | Print | Product List | Glossary Off
Versions: 1 2 3 4 5 6 7 8 9 10 11 12 13 14 15 16 17 18 19 20 21 22 23 24 25 26 27 28 29 30 31 32 33 34 35 36 37 38 39 40 41 42 43 44 45 46 47 48 49 50

000
AXUS43 KGID 311902
MISGRI

GID CWA HOURLY WEATHER ROUNDUP
NATIONAL WEATHER SERVICE HASTINGS NE
200 PM CDT MON AUG 31 2015

NOTE: "FAIR" INDICATES FEW OR NO CLOUDS BELOW 12,000 FEET WITH NO
SIGNIFICANT WEATHER AND/OR OBSTRUCTIONS TO VISIBILITY.

...SOUTH CENTRAL NEBRASKA...

CITY           SKY/WX    TMP DP  RH WIND       PRES   REMARKS
GRAND ISLAND   SUNNY     86  66  51 S14       29.93F
HASTINGS       SUNNY     86  65  49 S10G18    29.93F
KEARNEY        SUNNY     86  64  48 S13       29.92F
ORD            SUNNY     89  62  40 S8        29.90F
YORK           SUNNY     84  70  61 S13       29.94F
AURORA         SUNNY     84  67  58 S17       29.93S
LEXINGTON      SUNNY     87  62  42 S9        29.93S
HOLDREGE       SUNNY     85  59  41 S13       29.93S
HEBRON         SUNNY     85  66  53 S10       29.93F

...NEBRASKA PANHANDLE...

CITY           SKY/WX    TMP DP  RH WIND       PRES   REMARKS
CHADRON        PTSUNNY   77  55  46 E10       30.01F HAZE
ALLIANCE       CLOUDY    79  53  40 NE12      30.02S
SCOTTSBLUFF    PTSUNNY   87  49  26 CALM      30.02S
SIDNEY         CLOUDY    86  51  29 N13       30.06S

...WESTERN AND NORTH CENTRAL NEBRASKA...

CITY           SKY/WX    TMP DP  RH WIND       PRES   REMARKS
VALENTINE      MOSUNNY   83  59  44 NW18      29.96R
AINSWORTH      SUNNY     90  57  32 N10       29.92S
ONEILL         MOSUNNY   86  63  45 S13G18    29.89F
BROKEN BOW     SUNNY     88  61  40 S13       29.92F
IMPERIAL       MOSUNNY   92  51  24 NE13      29.96S
NORTH PLATTE   SUNNY     88  57  34 NE6       29.93F
MCCOOK         SUNNY     90  58  33 VRB5      29.91F

...EASTERN NEBRASKA...

CITY           SKY/WX    TMP DP  RH WIND       PRES   REMARKS
NORFOLK        SUNNY     83  68  60 S13       29.92S
SO SIOUX CITY  MOSUNNY   83  68  60 S13       29.92S
TEKAMAH        MOSUNNY   84  70  62 S13G18    29.93F
COLUMBUS       SUNNY     82  66  57 S13       29.92F
ALBION         SUNNY     81  67  61 S8        29.93F
OMAHA EPPLEY   MOSUNNY   85  67  54 S14       29.94F
OFFUTT AFB     FAIR      83  68  59 S10       29.94F
MILLARD        PTSUNNY   83  69  63 S8G16     29.94F
LINCOLN        SUNNY     86  66  51 S13G20    29.94F
NEBRASKA CITY  SUNNY     84  60  43 SW8       29.96F
BEATRICE       MOSUNNY   84  69  60 S10G18    29.95S
FALLS CITY     MOSUNNY   88  68  51 S12G17    29.95F HX  91

...NORTHERN KANSAS...

CITY           SKY/WX    TMP DP  RH WIND       PRES   REMARKS
GOODLAND       SUNNY     91  51  25 E9        29.96F
HILL CITY      SUNNY     96  56  26 S10       29.90F HX  94
NORTON         CLEAR     90  55  31 S6        29.90F
PHILLIPSBURG   SUNNY     93  59  31 S9G18     29.90F HX  92
SMITH CENTER   SUNNY     90  61  37 SE9G21    29.91F
HAYS           SUNNY     97  57  26 S13G23    29.89F HX  95
RUSSELL        SUNNY     96  56  26 S15G22    29.89F HX  94
CONCORDIA      SUNNY     88  67  49 S12       29.93F HX  91
SALINA         SUNNY     94  63  35 S15       29.91F HX  95
TOPEKA         SUNNY     88  69  53 S7        29.96F HX  92



USA.gov is the U.S. government's official web portal to all federal, state and local government web resources and services.